7 * 24
多渠道服务支持
STARLINK-32785是美国SpaceX公司星链(Starlink)星座的一员,于2025年1月8日发射入轨。星链项目旨在构建全球卫星互联网星座,通过部署数千颗低轨卫星,为全球偏远地区、海洋空域等场景提供高速宽带互联网接入服务。该卫星运行在近地轨道,作为星座组网的组成部分,承担着星间链路、信号转发等功能,助力星链星座覆盖能力的扩展,推动全球互联网络的普及与覆盖优化。
美国
(US)
| 数据来源 | 国际轨道数据 |
| 星历时间: | 2026-03-14T09:18:00+0800 1天前 查看轨道信息 |
| 半长轴: | 6861.178km |
| 偏心率: | 0.0000779 |
| 轨道倾角: | 42.999° |
| 近地点辐角 | 288.241° |
| 升交点赤经 | 195.443° |
| 平近点角 | 71.836° |
| 近地点: | 482.506km |
| 远地点: | 483.576km |
| 周期: | 94.267分钟 |
| 每日圈数: | 15.27583 |